STOCKHOLM / BROMMA current weather conditions

sailwx.info

Air temperature -1.0° C
Visibility: greater than 0.1 NM
Dewpoint -1.0° C
Present weather: Freezing fog.

Last reported at 2014-Nov-26 04:20 UTC.
Time now 2014-Nov-26 06:28 UTC

Location: N 59°21' E 017°57'.
View on Google Maps.

See reports from other nearby stations

  
Tides and Currents Weather Stations Pressure Air Temp Water Temp Dewpoint Dewpoint Depression Visibility Wind Speed Wind Dir Waves Ship Positions
date/time (UTC)wind fromknots sea level pressurealtimeterstation pressurevisibilityair tempwater tempwave heightnotes
2014-Nov-26 04:20 0.1-1.0 Freezing fog.
2014-Nov-26 03:50 0.1-2.0 Freezing fog.
2014-Nov-26 03:20 0.2-2.0 Patches of fog.
2014-Nov-26 02:50 260 2 0.1-2.0 Patches of fog.
2014-Nov-26 02:20 0.1-2.0 Patches of fog.
2014-Nov-26 01:50 140 2 0.1-2.0 Patches of fog.
2014-Nov-26 01:20 120 2 0.2-2.0 Freezing fog.
2014-Nov-26 00:50 0.3-2.0 Patches of fog.
2014-Nov-26 00:20 0.3-2.0 Freezing fog.
2014-Nov-25 23:50 0.2-2.0
2014-Nov-25 23:20 0.2-1.0 Freezing fog.
2014-Nov-25 22:50 220 1 1.7-1.0 Mist.
2014-Nov-25 22:20 0.9-1.0
2014-Nov-25 21:50 2.1-1.0
2014-Nov-25 21:20 210 2 0.4-0.0 Patches of fog.
2014-Nov-25 20:50 -1.0
2014-Nov-25 20:20 -1.0
2014-Nov-25 19:50 240 2 -1.0
2014-Nov-25 19:20 190 2 -0.0
2014-Nov-25 18:50 180 1 -0.0
2014-Nov-25 18:20 -0.0
2014-Nov-25 17:50 5.4-0.0
2014-Nov-25 17:20 1.0
2014-Nov-25 16:50 -0.0
2014-Nov-25 16:20 1.0
2014-Nov-25 15:50 1.0
2014-Nov-25 15:20 210 2 5.4 2.0
2014-Nov-25 14:50 5.4 2.0
2014-Nov-25 14:20 220 2 5.4 3.0
2014-Nov-25 13:50 5.4 4.0
2014-Nov-25 13:20 270 3 5.4 4.0
2014-Nov-25 12:50 260 4 5.4 4.0
2014-Nov-25 12:20 270 4 5.4 5.0
2014-Nov-25 11:50 270 4 5.4 4.0
2014-Nov-25 11:20 270 6 5.4 5.0
2014-Nov-25 10:50 290 9 5.4 5.0
2014-Nov-25 10:20 290 8 5.4 5.0
2014-Nov-25 09:50 270 7 5.4 6.0
2014-Nov-25 09:20 250 6 5.4 5.0
2014-Nov-25 08:50 260 4 5.4 5.0
2014-Nov-25 08:20 250 4 5.4 5.0
2014-Nov-25 07:50 240 4 5.4 5.0
2014-Nov-25 07:20 250 6 5.4 5.0
2014-Nov-25 06:50 240 6 5.4 5.0
2014-Nov-25 06:20 250 5 5.4 5.0
2014-Nov-25 05:50 230 4 5.4 5.0
2014-Nov-25 05:20 230 5 5.4 5.0
2014-Nov-25 04:50 220 5 5.4 5.0
2014-Nov-25 04:20 220 5 5.4 5.0
2014-Nov-25 03:50 210 6 5.4 5.0
2014-Nov-25 03:20 220 7 5.4 5.0
2014-Nov-25 02:50 200 6 5.4 6.0
2014-Nov-25 02:20 210 6 5.4 6.0
2014-Nov-25 01:50 190 6 5.4 6.0
2014-Nov-25 01:20 170 6 5.4 6.0
2014-Nov-25 00:50 190 6 5.4 6.0
2014-Nov-25 00:20 190 6 5.4 6.0
2014-Nov-24 23:50 170 6 5.4 6.0
2014-Nov-24 23:20 170 6 5.4 6.0
2014-Nov-24 22:50 180 6 5.4 6.0
2014-Nov-24 22:20 200 6 5.4 6.0
2014-Nov-24 21:50 190 6 5.4 6.0
2014-Nov-24 21:20 200 5 5.4 6.0
2014-Nov-24 20:50 180 6 5.4 6.0
2014-Nov-24 20:20 190 7 5.4 7.0
2014-Nov-24 19:50 180 6 5.4 7.0
2014-Nov-24 19:20 170 7 5.4 7.0
2014-Nov-24 18:50 160 7 5.4 6.0
2014-Nov-24 18:20 160 7 5.4 6.0
2014-Nov-24 17:50 150 6 5.4 6.0
2014-Nov-24 17:20 160 7 5.4 6.0
2014-Nov-24 16:50 160 7 5.4 6.0 Light drizzle.
2014-Nov-24 16:20 160 9 5.4 6.0 Light rain.
2014-Nov-24 15:50 150 11 5.4 6.0 Light rain.
2014-Nov-24 15:20 150 12 5.4 6.0 Light rain.
2014-Nov-24 14:50 160 13 5.4 6.0 Light rain.
2014-Nov-24 14:20 160 11 4.3 6.0 Light rain.
2014-Nov-24 13:50 160 14 5.4 7.0 Light drizzle.
2014-Nov-24 13:20 150 14 5.4 7.0
2014-Nov-24 12:50 150 13 5.4 6.0 Light rain.
2014-Nov-24 12:20 150 14 5.4 6.0 Drizzle.
2014-Nov-24 11:50 150 11 gusting 20 5.4 6.0 Light drizzle.
2014-Nov-24 11:20 150 15 gusting 27 5.4 6.0 Light rain.
2014-Nov-24 10:50 150 14 gusting 24 5.4 6.0 Light rain.
2014-Nov-24 10:20 150 17 gusting 29 5.4 7.0 Light rain.
2014-Nov-24 09:50 150 20 gusting 31 5.4 7.0 Light rain.
2014-Nov-24 09:20 150 19 gusting 29 5.4 7.0
2014-Nov-24 08:50 150 17 gusting 27 5.4 7.0
2014-Nov-24 08:20 150 16 gusting 26 5.4 7.0
2014-Nov-24 07:50 150 17 gusting 29 5.4 7.0
2014-Nov-24 07:20 150 18 gusting 27 5.4 7.0
2014-Nov-24 06:50 150 14 gusting 25 5.4 7.0
2014-Nov-24 06:20 150 17 gusting 27 5.4 7.0